Time,TemperatureF,DewpointF,PressureIn,WindDirection,WindDirectionDegrees,WindSpeedMPH,WindSpeedGustMPH,Humidity,HourlyPrecipIn,Conditions,Clouds,dailyrainin,SoftwareType,DateUTC
2013-03-28 00:03:00,34.0,32.0,-100.00,SSE,151,0.0,17.0,88,2.83,,,-99.99,,2013-03-28 04:03:00,
2013-03-28 00:12:00,34.0,32.0,-100.00,West,259,0.0,17.0,88,10.79,,,-99.99,,2013-03-28 04:12:00,
2013-03-28 00:23:00,34.0,32.0,-100.00,SSW,192,1.0,17.0,89,15.31,,,-99.99,,2013-03-28 04:23:00,
2013-03-28 00:32:00,34.0,32.0,-100.00,SSW,201,2.0,17.0,89,4.53,,,-99.99,,2013-03-28 04:32:00,
2013-03-28 00:42:00,34.0,32.0,-100.00,SSW,199,2.0,17.0,89,1.14,,,-99.99,,2013-03-28 04:42:00,
2013-03-28 00:52:00,34.0,32.0,-100.00,South,180,4.0,17.0,90,0.00,,,-99.99,,2013-03-28 04:52:00,
2013-03-28 01:02:00,34.0,32.0,-100.00,SSE,165,2.0,17.0,90,0.00,,,-99.99,,2013-03-28 05:02:00,
2013-03-28 01:12:00,34.0,32.0,-100.00,South,180,3.0,17.0,90,0.00,,,-99.99,,2013-03-28 05:12:00,
2013-03-28 01:22:00,34.0,32.0,-100.00,SSW,194,4.0,17.0,90,0.00,,,-99.99,,2013-03-28 05:22:00,
2013-03-28 01:32:00,34.0,32.0,-100.00,SW,214,2.0,17.0,90,1.14,,,-99.99,,2013-03-28 05:32:00,
2013-03-28 01:42:00,34.0,32.0,-100.00,SW,232,2.0,17.0,90,-99.99,,,-99.99,,2013-03-28 05:42:00,
2013-03-28 01:52:00,34.0,32.0,-100.00,SW,231,1.0,17.0,90,15.31,,,-99.99,,2013-03-28 05:52:00,
2013-03-28 02:02:00,34.0,32.0,-100.00,SSW,203,1.0,17.0,90,0.00,,,-99.99,,2013-03-28 06:02:00,
2013-03-28 02:12:00,34.0,32.0,-100.00,WSW,255,1.0,17.0,90,0.00,,,-99.99,,2013-03-28 06:12:00,
2013-03-28 02:22:00,35.0,32.0,-100.00,WSW,240,1.0,17.0,90,10.79,,,-99.99,,2013-03-28 06:22:00,
2013-03-28 02:32:00,34.0,32.0,-100.00,SW,221,1.0,1.0,90,-99.99,,,-99.99,,2013-03-28 06:32:00,
2013-03-28 02:42:00,34.0,32.0,-100.00,NW,326,2.0,2.0,90,-99.99,,,-99.99,,2013-03-28 06:42:00,
2013-03-28 02:52:00,35.0,32.0,-100.00,West,272,2.0,4.0,91,23.23,,,-99.99,,2013-03-28 06:52:00,
2013-03-28 03:02:00,33.0,32.0,-100.00,SW,220,4.0,8.0,91,9.06,,,-99.99,,2013-03-28 07:02:00,
2013-03-28 03:13:00,34.0,32.0,-100.00,West,264,3.0,8.0,91,2.83,,,-99.99,,2013-03-28 07:13:00,
2013-03-28 03:22:00,34.0,32.0,-100.00,WSW,244,2.0,8.0,91,15.31,,,-99.99,,2013-03-28 07:22:00,
2013-03-28 03:32:00,33.0,32.0,-100.00,SSW,210,2.0,8.0,91,14.17,,,-99.99,,2013-03-28 07:32:00,
2013-03-28 03:42:00,35.0,32.0,-100.00,WSW,254,5.0,8.0,93,-99.99,,,-99.99,,2013-03-28 07:42:00,
2013-03-28 03:52:00,35.0,32.0,-100.00,WNW,295,3.0,8.0,94,24.96,,,-99.99,,2013-03-28 07:52:00,
2013-03-28 04:02:00,35.0,32.0,-100.00,NW,321,2.0,8.0,94,23.23,,,-99.99,,2013-03-28 08:02:00,
2013-03-28 04:12:00,35.0,32.0,-100.00,SSE,162,1.0,8.0,93,4.53,,,-99.99,,2013-03-28 08:12:00,
2013-03-28 04:22:00,35.0,32.0,-100.00,WSW,256,1.0,8.0,94,12.48,,,-99.99,,2013-03-28 08:22:00,
2013-03-28 04:33:00,35.0,32.0,-100.00,West,276,1.0,8.0,94,9.06,,,-99.99,,2013-03-28 08:33:00,
2013-03-28 04:42:00,35.0,32.0,-100.00,WSW,245,1.0,8.0,94,26.65,,,-99.99,,2013-03-28 08:42:00,
2013-03-28 04:52:00,35.0,32.0,-100.00,South,183,1.0,8.0,94,21.54,,,-99.99,,2013-03-28 08:52:00,
2013-03-28 05:02:00,35.0,32.0,-100.00,SSW,194,2.0,8.0,94,6.22,,,-99.99,,2013-03-28 09:02:00,
2013-03-28 05:12:00,35.0,32.0,-100.00,SSW,192,1.0,8.0,94,4.53,,,-99.99,,2013-03-28 09:12:00,
2013-03-28 05:22:00,35.0,32.0,-100.00,SW,224,1.0,8.0,94,10.79,,,-99.99,,2013-03-28 09:22:00,
2013-03-28 05:32:00,35.0,32.0,-100.00,WNW,289,1.0,8.0,94,4.53,,,-99.99,,2013-03-28 09:32:00,
2013-03-28 05:42:00,35.0,32.0,-100.00,SSW,206,1.0,8.0,94,1.14,,,-99.99,,2013-03-28 09:42:00,
2013-03-28 05:52:00,35.0,32.0,-100.00,WSW,251,1.0,8.0,94,2.83,,,-99.99,,2013-03-28 09:52:00,
2013-03-28 06:03:00,35.0,32.0,-100.00,SSW,200,1.0,8.0,94,2.83,,,-99.99,,2013-03-28 10:03:00,
2013-03-28 06:12:00,35.0,32.0,-100.00,SSW,193,1.0,8.0,94,1.14,,,-99.99,,2013-03-28 10:12:00,
2013-03-28 06:22:00,35.0,32.0,-100.00,SW,220,1.0,8.0,94,1.14,,,-99.99,,2013-03-28 10:22:00,
2013-03-28 06:33:00,35.0,32.0,-100.00,South,173,1.0,8.0,94,1.14,,,-99.99,,2013-03-28 10:33:00,
2013-03-28 06:43:00,34.0,32.0,-100.00,SSW,203,1.0,8.0,94,4.53,,,-99.99,,2013-03-28 10:43:00,
2013-03-28 06:52:00,35.0,32.0,-100.00,South,189,0.0,8.0,94,1.14,,,-99.99,,2013-03-28 10:52:00,
2013-03-28 07:02:00,35.0,32.0,-100.00,SW,231,1.0,8.0,94,0.00,,,-99.99,,2013-03-28 11:02:00,
2013-03-28 07:12:00,35.0,32.0,-100.00,South,175,0.0,8.0,94,1.14,,,-99.99,,2013-03-28 11:12:00,
2013-03-28 07:23:00,35.0,32.0,-100.00,SW,221,0.0,8.0,94,0.00,,,-99.99,,2013-03-28 11:23:00,
2013-03-28 07:32:00,35.0,32.0,-100.00,SSW,194,0.0,8.0,94,0.00,,,-99.99,,2013-03-28 11:32:00,
2013-03-28 07:43:00,33.0,32.0,-100.00,South,184,1.0,8.0,93,0.00,,,-99.99,,2013-03-28 11:43:00,
2013-03-28 07:52:00,33.0,32.0,-100.00,SSW,201,2.0,8.0,93,0.00,,,-99.99,,2013-03-28 11:52:00,
2013-03-28 08:02:00,33.0,32.0,-100.00,SSW,201,2.0,8.0,93,0.00,,,-99.99,,2013-03-28 12:02:00,
2013-03-28 08:12:00,33.0,32.0,-100.00,SW,217,3.0,8.0,93,1.14,,,-99.99,,2013-03-28 12:12:00,
2013-03-28 08:22:00,34.0,32.0,-100.00,SW,217,2.0,8.0,94,0.00,,,-99.99,,2013-03-28 12:22:00,
2013-03-28 08:32:00,36.0,34.0,-100.00,SSW,199,2.0,8.0,94,0.00,,,-99.99,,2013-03-28 12:32:00,
2013-03-28 08:42:00,35.0,32.0,-100.00,SSW,206,4.0,8.0,94,0.00,,,-99.99,,2013-03-28 12:42:00,
2013-03-28 08:52:00,34.0,32.0,-100.00,WSW,241,2.0,8.0,93,0.00,,,-99.99,,2013-03-28 12:52:00,
2013-03-28 09:02:00,33.0,32.0,-100.00,WSW,252,2.0,8.0,93,1.14,,,-99.99,,2013-03-28 13:02:00,
2013-03-28 09:12:00,34.0,32.0,-100.00,SSW,208,1.0,8.0,93,0.00,,,-99.99,,2013-03-28 13:12:00,
2013-03-28 09:22:00,34.0,32.0,-100.00,South,177,1.0,8.0,93,0.00,,,-99.99,,2013-03-28 13:22:00,
2013-03-28 09:32:00,34.0,32.0,-100.00,West,276,1.0,8.0,91,1.14,,,-99.99,,2013-03-28 13:32:00,
2013-03-28 09:42:00,34.0,32.0,-100.00,South,190,1.0,8.0,91,17.01,,,-99.99,,2013-03-28 13:42:00,
2013-03-28 09:52:00,34.0,32.0,-100.00,WSW,251,1.0,8.0,91,0.00,,,-99.99,,2013-03-28 13:52:00,
2013-03-28 10:02:00,34.0,32.0,-100.00,WSW,238,2.0,8.0,91,0.00,,,-99.99,,2013-03-28 14:02:00,
2013-03-28 10:12:00,34.0,32.0,-100.00,SSE,166,2.0,8.0,91,0.00,,,-99.99,,2013-03-28 14:12:00,
2013-03-28 10:23:00,34.0,32.0,-100.00,SSW,201,1.0,8.0,90,0.00,,,-99.99,,2013-03-28 14:23:00,
2013-03-28 10:33:00,34.0,32.0,-100.00,SSW,210,2.0,8.0,90,0.00,,,-99.99,,2013-03-28 14:33:00,
2013-03-28 10:42:00,35.0,32.0,-100.00,West,279,2.0,8.0,90,0.00,,,-99.99,,2013-03-28 14:42:00,
2013-03-28 10:52:00,35.0,32.0,-100.00,SSW,192,2.0,8.0,89,0.00,,,-99.99,,2013-03-28 14:52:00,
2013-03-28 11:02:00,35.0,32.0,-100.00,SW,224,1.0,8.0,89,0.00,,,-99.99,,2013-03-28 15:02:00,
2013-03-28 11:12:00,35.0,32.0,-100.00,SSW,193,2.0,8.0,88,0.00,,,-99.99,,2013-03-28 15:12:00,
2013-03-28 11:22:00,36.0,32.0,-100.00,SW,223,2.0,8.0,88,0.00,,,-99.99,,2013-03-28 15:22:00,
2013-03-28 11:33:00,35.0,32.0,-100.00,WSW,237,2.0,8.0,88,0.00,,,-99.99,,2013-03-28 15:33:00,
2013-03-28 11:43:00,35.0,32.0,-100.00,SW,234,3.0,8.0,86,0.00,,,-99.99,,2013-03-28 15:43:00,
2013-03-28 11:53:00,35.0,32.0,-100.00,West,261,2.0,8.0,86,0.00,,,-99.99,,2013-03-28 15:53:00,
2013-03-28 12:03:00,35.0,32.0,-100.00,SSW,213,2.0,8.0,86,0.00,,,-99.99,,2013-03-28 16:03:00,
2013-03-28 12:12:00,36.0,32.0,-100.00,SW,227,3.0,8.0,86,0.00,,,-99.99,,2013-03-28 16:12:00,
2013-03-28 12:23:00,36.0,32.0,-100.00,SW,221,2.0,8.0,85,0.00,,,-99.99,,2013-03-28 16:23:00,
2013-03-28 12:32:00,34.0,30.0,-100.00,SW,235,4.0,8.0,85,0.00,,,-99.99,,2013-03-28 16:32:00,
2013-03-28 12:42:00,36.0,32.0,-100.00,South,184,6.0,8.0,85,0.00,,,-99.99,,2013-03-28 16:42:00,
2013-03-28 12:52:00,36.0,32.0,-100.00,SW,225,6.0,8.0,84,0.00,,,-99.99,,2013-03-28 16:52:00,
2013-03-28 13:02:00,36.0,32.0,-100.00,SW,232,6.0,8.0,82,0.00,,,-99.99,,2013-03-28 17:02:00,
2013-03-28 13:12:00,36.0,32.0,-100.00,SSW,194,6.0,8.0,82,0.00,,,-99.99,,2013-03-28 17:12:00,
2013-03-28 13:22:00,36.0,32.0,-100.00,South,190,5.0,8.0,81,0.00,,,-99.99,,2013-03-28 17:22:00,
2013-03-28 13:32:00,36.0,32.0,-100.00,SSW,200,6.0,12.0,81,0.00,,,-99.99,,2013-03-28 17:32:00,
2013-03-28 13:42:00,36.0,32.0,-100.00,South,179,6.0,12.0,81,0.00,,,-99.99,,2013-03-28 17:42:00,
2013-03-28 13:52:00,37.0,32.0,-100.00,SW,228,5.0,12.0,80,0.00,,,-99.99,,2013-03-28 17:52:00,
2013-03-28 14:02:00,36.0,32.0,-100.00,South,186,7.0,12.0,80,0.00,,,-99.99,,2013-03-28 18:02:00,
2013-03-28 14:12:00,36.0,32.0,-100.00,SW,234,5.0,12.0,80,0.00,,,-99.99,,2013-03-28 18:12:00,
2013-03-28 14:22:00,37.0,32.0,-100.00,SW,221,4.0,12.0,78,0.00,,,-99.99,,2013-03-28 18:22:00,
2013-03-28 14:32:00,39.0,32.0,-100.00,SW,214,4.0,12.0,78,0.00,,,-99.99,,2013-03-28 18:32:00,
2013-03-28 14:42:00,37.0,32.0,-100.00,SW,218,7.0,12.0,77,0.00,,,-99.99,,2013-03-28 18:42:00,
2013-03-28 14:52:00,38.0,32.0,-100.00,West,262,6.0,12.0,76,0.00,,,-99.99,,2013-03-28 18:52:00,
2013-03-28 15:02:00,38.0,32.0,-100.00,South,183,6.0,12.0,76,0.00,,,-99.99,,2013-03-28 19:02:00,
2013-03-28 15:12:00,38.0,32.0,-100.00,SSW,201,7.0,12.0,76,0.00,,,-99.99,,2013-03-28 19:12:00,
2013-03-28 15:23:00,38.0,32.0,-100.00,SSW,194,6.0,12.0,76,0.00,,,-99.99,,2013-03-28 19:23:00,
2013-03-28 15:33:00,38.0,32.0,-100.00,South,184,7.0,12.0,75,0.00,,,-99.99,,2013-03-28 19:33:00,
2013-03-28 15:42:00,38.0,32.0,-100.00,SSW,199,9.0,12.0,73,0.00,,,-99.99,,2013-03-28 19:42:00,
2013-03-28 15:52:00,38.0,30.0,-100.00,South,190,6.0,12.0,73,0.00,,,-99.99,,2013-03-28 19:52:00,
2013-03-28 16:03:00,38.0,32.0,-100.00,SW,218,5.0,12.0,73,0.00,,,-99.99,,2013-03-28 20:03:00,
2013-03-28 16:12:00,40.0,32.0,-100.00,WSW,241,4.0,12.0,75,0.00,,,-99.99,,2013-03-28 20:12:00,
2013-03-28 16:22:00,39.0,32.0,-100.00,SSW,206,5.0,12.0,72,0.00,,,-99.99,,2013-03-28 20:22:00,
2013-03-28 16:32:00,39.0,32.0,-100.00,West,273,4.0,12.0,72,0.00,,,-99.99,,2013-03-28 20:32:00,
2013-03-28 16:42:00,39.0,32.0,-100.00,SSW,193,5.0,12.0,73,0.00,,,-99.99,,2013-03-28 20:42:00,
2013-03-28 16:52:00,39.0,32.0,-100.00,SSW,208,5.0,12.0,72,0.00,,,-99.99,,2013-03-28 20:52:00,
2013-03-28 17:02:00,41.0,32.0,-100.00,WSW,242,4.0,12.0,72,0.00,,,-99.99,,2013-03-28 21:02:00,
2013-03-28 17:12:00,42.0,32.0,-100.00,South,186,4.0,12.0,72,0.00,,,-99.99,,2013-03-28 21:12:00,
2013-03-28 17:22:00,40.0,32.0,-100.00,SW,225,6.0,12.0,69,0.00,,,-99.99,,2013-03-28 21:22:00,
2013-03-28 17:33:00,40.0,32.0,-100.00,SW,234,4.0,12.0,71,0.00,,,-99.99,,2013-03-28 21:33:00,
2013-03-28 17:43:00,40.0,32.0,-100.00,SW,234,6.0,12.0,69,0.00,,,-99.99,,2013-03-28 21:43:00,
2013-03-28 17:53:00,41.0,32.0,-100.00,West,266,5.0,12.0,71,0.00,,,-99.99,,2013-03-28 21:53:00,
2013-03-28 18:03:00,40.0,32.0,-100.00,SSW,213,4.0,12.0,69,0.00,,,-99.99,,2013-03-28 22:03:00,
2013-03-28 18:13:00,40.0,32.0,-100.00,SSW,210,4.0,12.0,69,0.00,,,-99.99,,2013-03-28 22:13:00,
2013-03-28 18:22:00,39.0,32.0,-100.00,SSW,206,6.0,12.0,71,0.00,,,-99.99,,2013-03-28 22:22:00,
2013-03-28 18:32:00,40.0,32.0,-100.00,SSW,207,5.0,12.0,69,0.00,,,-99.99,,2013-03-28 22:32:00,
2013-03-28 18:42:00,40.0,32.0,-100.00,South,186,6.0,12.0,71,0.00,,,-99.99,,2013-03-28 22:42:00,
2013-03-28 18:52:00,41.0,32.0,-100.00,South,175,6.0,12.0,72,0.00,,,-99.99,,2013-03-28 22:52:00,
2013-03-28 19:03:00,41.0,32.0,-100.00,SSW,192,4.0,12.0,71,0.00,,,-99.99,,2013-03-28 23:03:00,
2013-03-28 19:12:00,41.0,32.0,-100.00,SW,223,4.0,12.0,71,0.00,,,-99.99,,2013-03-28 23:12:00,
2013-03-28 19:22:00,41.0,32.0,-100.00,SSW,203,5.0,12.0,71,0.00,,,-99.99,,2013-03-28 23:22:00,
2013-03-28 19:32:00,41.0,32.0,-100.00,SSW,207,6.0,12.0,71,0.00,,,-99.99,,2013-03-28 23:32:00,
2013-03-28 19:42:00,42.0,32.0,-100.00,South,182,5.0,12.0,71,0.00,,,-99.99,,2013-03-28 23:42:00,
2013-03-28 19:52:00,42.0,32.0,-100.00,SSW,210,4.0,12.0,71,0.00,,,-99.99,,2013-03-28 23:52:00,
2013-03-28 20:02:00,42.0,32.0,-100.00,SW,220,3.0,12.0,72,0.00,,,-99.99,,2013-03-29 00:02:00,
2013-03-28 20:12:00,42.0,34.0,-100.00,SSW,197,3.0,12.0,72,0.00,,,-99.99,,2013-03-29 00:12:00,
2013-03-28 20:22:00,42.0,32.0,-100.00,South,190,3.0,12.0,72,0.00,,,-99.99,,2013-03-29 00:22:00,
2013-03-28 20:32:00,41.0,32.0,-100.00,South,190,4.0,12.0,72,0.00,,,-99.99,,2013-03-29 00:32:00,
2013-03-28 20:42:00,41.0,32.0,-100.00,SSW,193,2.0,12.0,72,0.00,,,-99.99,,2013-03-29 00:42:00,
2013-03-28 20:52:00,41.0,32.0,-100.00,South,176,2.0,12.0,72,0.00,,,-99.99,,2013-03-29 00:52:00,
2013-03-28 21:02:00,40.0,32.0,-100.00,SSE,162,2.0,12.0,72,0.00,,,-99.99,,2013-03-29 01:02:00,
2013-03-28 21:12:00,41.0,32.0,-100.00,SE,135,2.0,12.0,72,0.00,,,-99.99,,2013-03-29 01:12:00,
2013-03-28 21:22:00,41.0,32.0,-100.00,SSE,166,2.0,12.0,72,0.00,,,-99.99,,2013-03-29 01:22:00,
2013-03-28 21:33:00,40.0,32.0,-100.00,SE,139,1.0,12.0,72,0.00,,,-99.99,,2013-03-29 01:33:00,
2013-03-28 21:42:00,40.0,32.0,-100.00,SSE,149,1.0,12.0,72,0.00,,,-99.99,,2013-03-29 01:42:00,
2013-03-28 21:52:00,41.0,32.0,-100.00,SE,125,1.0,12.0,72,0.00,,,-99.99,,2013-03-29 01:52:00,
2013-03-28 22:02:00,41.0,32.0,-100.00,East,79,1.0,12.0,72,0.00,,,-99.99,,2013-03-29 02:02:00,
2013-03-28 22:12:00,40.0,32.0,-100.00,South,189,0.0,12.0,73,0.00,,,-99.99,,2013-03-29 02:12:00,
2013-03-28 22:22:00,40.0,32.0,-100.00,SSW,201,0.0,12.0,73,0.00,,,-99.99,,2013-03-29 02:22:00,
2013-03-28 22:32:00,37.0,30.0,-100.00,SSE,155,0.0,12.0,73,0.00,,,-99.99,,2013-03-29 02:32:00,
2013-03-28 22:42:00,39.0,32.0,-100.00,ESE,122,0.0,12.0,73,0.00,,,-99.99,,2013-03-29 02:42:00,
2013-03-28 22:52:00,40.0,32.0,-100.00,SE,144,0.0,12.0,73,0.00,,,-99.99,,2013-03-29 02:52:00,
2013-03-28 23:02:00,38.0,32.0,-100.00,SSE,168,1.0,12.0,73,0.00,,,-99.99,,2013-03-29 03:02:00,
2013-03-28 23:12:00,38.0,32.0,-100.00,SSE,151,1.0,12.0,73,0.00,,,-99.99,,2013-03-29 03:12:00,
2013-03-28 23:22:00,37.0,30.0,-100.00,SE,125,0.0,12.0,73,0.00,,,-99.99,,2013-03-29 03:22:00,
2013-03-28 23:32:00,37.0,30.0,-100.00,ESE,115,0.0,12.0,73,0.00,,,-99.99,,2013-03-29 03:32:00,
2013-03-28 23:43:00,40.0,32.0,-100.00,ENE,70,1.0,12.0,75,0.00,,,-99.99,,2013-03-29 03:43:00,
2013-03-28 23:53:00,40.0,32.0,-100.00,SE,127,0.0,12.0,75,0.00,,,-99.99,,2013-03-29 03:53:00,